Wind_Speed
7 7 7 7 6 6 6 6 7 7 7 8 9 9 10 10 11 12 12 12 13 14 15 16 17 18 19 20 21 21 22 23 23 23 24 24 24 25 25 26 25 24 24
8 8 8 7 7 7 7 7 7 8 9 9 10 10 11 11 12 12 12 13 14 15 16 17 18 19 20 21 22 23 23 23 24 24 24 25 24 25 25 25 24 25 25
8 9 9 8 8 8 8 8 8 9 9 10 11 11 11 12 12 12 13 14 15 16 17 18 18 19 20 21 22 22 23 24 24 24 24 25 25 25 25 24 25 25 26
9 10 10 9 9 9 9 9 9 10 10 11 11 12 12 12 13 13 14 15 15 16 17 18 19 19 20 21 21 21 22 22 23 24 25 25 26 25 25 25 26 26 26
11 12 11 10 10 10 10 11 11 11 11 11 12 13 13 14 14 14 15 15 16 17 18 19 19 20 21 21 21 21 21 22 23 23 24 24 25 25 26 26 27 27 27
12 12 11 10 10 11 11 11 12 12 12 12 12 13 14 14 15 15 16 17 17 18 19 19 19 19 20 20 21 21 21 22 22 22 23 24 25 25 26 27 27 28 29
13 13 11 11 11 12 11 12 12 12 13 13 13 14 15 15 16 16 17 17 18 19 19 19 20 20 21 21 21 21 21 22 22 23 23 23 24 25 26 28 29 30 30
14 13 13 12 13 13 13 13 14 14 14 14 14 15 16 16 17 17 18 18 19 19 20 20 21 21 21 21 21 21 22 22 23 23 24 24 24 25 27 29 30 31 31
15 15 14 14 14 14 15 15 15 15 15 15 16 16 16 17 18 18 19 19 20 21 21 21 21 21 21 21 22 22 23 23 25 26 26 26 27 27 28 29 31 32 32
17 17 16 16 16 16 17 17 17 16 16 17 17 18 18 19 19 20 21 21 21 21 21 22 21 21 22 22 22 23 24 25 26 27 27 28 28 28 29 30 31 32 33
18 18 18 18 18 18 18 18 18 18 19 19 19 19 20 21 21 21 21 21 21 22 22 22 22 23 23 23 24 25 26 27 27 28 29 30 30 30 30 31 32 33 33
20 20 20 20 20 20 20 20 20 20 21 21 21 22 22 23 23 23 23 23 23 23 24 24 24 25 25 25 26 27 27 28 29 30 31 31 32 31 32 32 33 34 34
23 22 22 22 21 21 21 22 22 22 22 22 23 24 25 25 25 26 26 26 26 26 26 26 27 27 27 28 28 29 29 30 31 32 32 33 33 33 33 33 33 33 33
24 24 24 23 23 23 23 24 25 25 24 25 26 26 27 27 28 28 28 29 29 29 29 29 29 29 30 30 30 30 31 32 33 33 33 33 33 34 34 33 33 32 32
25 25 26 26 25 25 25 26 26 27 27 27 27 28 29 30 30 30 30 30 31 32 32 32 32 32 31 32 32 32 32 33 33 33 33 33 33 34 34 33 32 32 32
28 28 28 27 27 27 27 28 29 30 30 30 30 30 31 31 32 31 32 32 32 33 34 33 33 33 33 33 33 33 33 32 33 34 34 33 33 32 32 31 31 31 31
30 30 30 30 30 30 29 29 30 31 31 32 33 33 33 33 33 32 33 33 33 33 33 33 34 34 34 34 33 33 33 33 33 33 33 33 33 32 31 31 31 31 32
30 30 31 31 32 32 31 32 32 33 33 34 34 34 34 34 34 33 34 34 33 33 33 33 34 34 34 34 34 34 33 33 32 32 32 32 32 31 31 31 31 32 32
32 32 32 33 32 33 33 34 34 35 35 35 35 34 34 33 33 33 34 34 34 34 34 33 33 33 33 34 34 33 32 31 31 31 31 31 31 31 30 31 31 31 31
33 32 33 33 32 33 34 34 35 35 35 34 34 34 34 34 34 34 34 34 34 34 33 32 32 32 33 33 33 32 31 31 31 31 31 30 30 30 30 30 30 31 30
34 34 34 33 33 34 34 34 34 34 35 35 35 35 34 34 34 34 34 33 33 32 32 32 32 32 31 31 32 32 31 31 31 31 31 30 30 30 30 30 30 29 29
35 35 34 35 35 35 35 35 35 36 36 35 35 34 34 34 34 34 33 33 32 32 31 31 31 31 32 32 31 31 30 30 30 30 29 29 29 29 29 29 29 29 29
35 35 34 34 34 35 35 35 35 36 35 34 33 33 33 33 32 33 32 32 31 31 31 30 30 30 30 30 30 30 30 30 30 30 30 30 30 29 30 29 29 29 29
36 35 35 34 34 34 35 35 35 35 34 33 33 33 33 32 32 32 31 31 30 30 29 30 30 30 30 30 30 30 30 30 30 30 30 30 29 29 29 29 29 29 29
35 35 35 35 35 35 35 35 34 34 33 33 33 32 32 31 31 31 30 29 29 29 29 29 30 31 31 31 30 30 31 31 31 30 30 30 30 30 29 29 29 29 28
33 33 33 34 33 33 33 33 32 32 32 32 31 30 30 30 30 29 29 28 29 29 30 30 30 30 30 30 30 30 31 31 30 30 30 30 30 29 29 28 28 28 27
Wind_Direction
329 328 325 320 310 297 291 290 293 293 291 290 288 285 283 281 281 283 285 285 281 279 278 278 278 277 279 280 282 284 284 285 285 285 285 283 280 280 280 279 276 278 279
329 330 331 326 318 307 299 296 295 294 294 294 292 289 287 284 284 286 288 287 285 282 282 282 281 281 282 282 283 283 284 285 285 285 285 285 282 280 280 279 276 278 279
329 330 328 322 317 311 307 298 295 297 297 297 297 295 294 289 289 288 288 289 288 287 286 285 286 287 287 286 286 285 285 284 285 286 287 284 283 281 280 280 279 279 281
327 325 323 317 313 310 307 299 296 296 296 298 297 296 295 294 293 291 290 290 291 291 290 290 291 290 289 288 288 287 286 286 287 286 286 287 285 284 282 281 282 282 281
320 320 315 311 308 310 308 299 296 297 296 295 296 295 294 294 294 293 293 291 292 293 293 293 293 293 291 290 288 288 288 288 289 288 287 288 286 284 283 284 283 283 283
316 318 311 309 307 306 306 302 299 295 294 296 297 299 300 298 295 294 293 293 294 295 295 295 295 294 294 293 292 291 292 291 290 289 287 288 287 286 285 284 285 286 284
314 314 312 307 311 309 305 307 305 301 299 298 298 299 300 301 300 299 298 297 298 298 297 297 295 293 293 293 292 291 291 291 291 293 292 292 291 289 287 286 287 287 287
309 308 306 306 306 309 307 305 305 305 305 301 299 301 301 301 301 300 300 299 297 297 297 297 297 296 294 293 292 291 291 292 293 293 294 294 293 292 292 289 290 292 291
303 305 304 303 305 306 307 307 306 304 303 303 302 302 303 302 302 301 301 301 301 299 297 298 298 297 294 294 293 292 293 292 292 293 293 293 294 293 292 291 291 292 292
298 300 298 300 301 304 305 306 307 308 305 302 301 302 302 301 301 301 300 301 301 301 300 300 299 297 295 295 294 294 293 293 294 294 294 294 294 293 293 294 294 293 292
292 294 295 296 299 301 303 304 305 305 303 301 301 301 301 301 302 302 301 300 301 301 301 300 299 297 296 295 295 295 295 295 295 294 294 295 295 293 292 293 294 294 293
290 292 293 294 295 297 300 303 304 303 303 302 301 301 301 301 301 301 301 301 300 300 300 299 298 297 296 295 295 296 295 295 295 294 295 295 295 294 293 293 293 294 292
290 291 291 292 294 296 299 300 301 300 300 301 301 302 301 301 300 300 299 299 299 299 299 297 296 296 296 295 294 294 294 295 296 296 296 296 295 294 293 293 292 292 292
286 288 290 292 292 294 296 298 299 299 299 300 299 299 300 299 299 298 297 297 297 297 297 296 295 295 296 295 295 296 295 296 297 297 297 297 297 296 295 294 293 293 294
285 285 287 289 292 293 294 297 297 297 299 299 299 298 298 298 298 297 297 297 296 295 294 294 294 294 294 295 295 295 296 296 297 298 298 298 298 297 295 293 294 296 296
283 285 286 288 290 292 293 294 296 298 298 299 299 298 297 297 298 297 297 298 297 296 294 293 292 293 293 294 295 295 296 296 297 297 297 297 296 295 294 294 296 297 298
282 284 284 285 288 290 292 294 297 298 298 298 298 298 298 297 297 297 296 297 297 296 294 292 292 292 292 293 294 295 295 296 297 297 296 296 296 294 293 294 295 296 297
284 285 287 287 287 288 290 292 295 296 297 297 297 297 297 296 296 296 297 296 295 295 295 294 293 292 293 293 293 294 295 295 295 295 295 294 294 294 294 293 295 297 297
283 284 286 288 288 287 288 290 292 294 295 296 297 297 297 297 296 296 297 297 295 295 294 294 294 293 292 293 294 294 294 294 294 295 295 294 294 294 294 295 296 298 298
282 283 285 286 286 287 289 291 293 294 295 295 296 296 295 295 296 297 297 297 296 295 294 294 295 294 293 294 294 294 293 293 293 295 296 295 294 294 295 295 296 298 299
279 281 283 283 284 286 288 290 292 293 294 294 294 294 294 295 296 296 296 295 295 294 293 294 295 295 294 295 295 294 293 292 294 295 295 295 295 294 294 295 296 297 297
278 279 281 282 282 284 287 289 290 292 293 294 294 293 294 294 295 295 295 295 294 293 293 294 295 295 295 295 295 295 293 293 293 293 293 293 293 293 294 295 295 296 296
276 278 279 281 283 285 286 288 290 291 292 292 293 294 295 295 295 295 295 294 294 294 295 295 295 295 295 295 295 295 294 294 293 293 293 293 293 293 294 293 294 295 296
274 276 278 281 283 285 287 288 289 290 291 292 293 294 294 294 294 294 294 293 293 294 294 294 294 294 294 294 295 294 294 294 294 294 293 293 293 293 293 293 294 295 295
274 276 278 281 283 284 285 286 287 288 289 291 292 293 293 293 294 293 293 294 294 294 294 295 295 294 294 294 294 294 293 293 293 293 293 293 293 292 292 293 294 295 296
276 277 279 281 283 284 284 286 287 288 289 290 291 292 292 292 292 293 294 294 295 295 296 297 297 296 295 295 295 294 293 293 292 292 293 292 292 292 292 293 294 295 295
Height
5892 5891 5890 5889 5888 5888 5887 5886 5886 5885 5885 5884 5883 5882 5882 5881 5880 5880 5879 5878 5877 5877 5876 5875 5874 5873 5873 5871 5870 5869 5867 5866 5864 5863 5861 5860 5858 5857 5855 5854 5852 5851 5850
5890 5889 5888 5887 5886 5885 5885 5884 5883 5883 5882 5881 5880 5879 5879 5878 5877 5876 5875 5874 5873 5873 5872 5871 5870 5868 5867 5866 5864 5863 5861 5860 5858 5856 5855 5853 5852 5850 5849 5847 5845 5844 5843
5888 5887 5887 5886 5884 5883 5882 5881 5881 5880 5879 5878 5877 5876 5875 5875 5874 5873 5872 5871 5869 5868 5867 5866 5865 5863 5862 5860 5858 5857 5855 5853 5852 5850 5848 5846 5845 5843 5841 5840 5839 5838 5836
5886 5886 5885 5883 5882 5881 5880 5879 5878 5877 5876 5875 5874 5873 5872 5871 5870 5869 5868 5867 5865 5864 5863 5861 5859 5858 5856 5854 5853 5851 5849 5847 5845 5843 5842 5840 5838 5836 5834 5833 5832 5830 5829
5884 5883 5882 5880 5879 5878 5877 5876 5875 5874 5873 5871 5870 5869 5868 5867 5866 5865 5864 5863 5861 5859 5858 5856 5854 5853 5851 5849 5847 5845 5843 5841 5839 5837 5835 5833 5831 5829 5828 5826 5825 5823 5821
5882 5880 5877 5877 5876 5875 5874 5872 5871 5870 5869 5868 5867 5866 5864 5863 5862 5861 5859 5858 5856 5854 5853 5851 5849 5847 5845 5843 5841 5839 5837 5835 5833 5831 5829 5827 5825 5824 5822 5819 5818 5816 5814
5879 5877 5874 5873 5873 5872 5870 5869 5868 5867 5865 5864 5863 5862 5860 5859 5858 5856 5854 5853 5851 5849 5847 5845 5843 5841 5839 5837 5835 5833 5831 5829 5827 5825 5823 5821 5819 5817 5815 5812 5810 5808 5806
5875 5874 5873 5871 5870 5869 5867 5866 5864 5863 5861 5860 5859 5858 5856 5855 5853 5851 5849 5847 5846 5843 5842 5840 5838 5835 5833 5831 5829 5827 5825 5823 5821 5819 5817 5815 5812 5810 5808 5805 5803 5800 5797
5872 5870 5869 5868 5867 5865 5864 5862 5861 5859 5857 5856 5855 5853 5852 5850 5849 5846 5844 5842 5840 5837 5835 5833 5831 5829 5827 5825 5823 5821 5819 5817 5815 5812 5810 5808 5805 5803 5800 5797 5794 5791 5788
5868 5866 5865 5864 5863 5861 5860 5858 5856 5855 5853 5851 5850 5848 5847 5845 5843 5841 5839 5837 5835 5832 5830 5828 5826 5823 5821 5819 5817 5815 5813 5810 5808 5805 5803 5800 5797 5795 5792 5789 5786 5783 5779
5863 5862 5861 5860 5858 5857 5855 5854 5852 5850 5849 5847 5845 5843 5842 5840 5838 5835 5833 5831 5829 5826 5824 5822 5819 5817 5815 5812 5810 5808 5805 5803 5800 5798 5795 5792 5789 5786 5783 5780 5777 5774 5770
5858 5857 5856 5855 5853 5852 5850 5849 5847 5845 5844 5842 5840 5838 5836 5834 5831 5829 5827 5825 5823 5820 5818 5815 5813 5810 5808 5805 5803 5800 5798 5795 5792 5789 5787 5784 5781 5777 5774 5771 5768 5764 5761
5853 5851 5850 5849 5848 5846 5845 5843 5841 5840 5838 5836 5834 5832 5830 5827 5825 5822 5820 5818 5816 5813 5811 5808 5805 5803 5800 5798 5795 5792 5789 5786 5784 5781 5778 5774 5771 5768 5765 5761 5758 5755 5751
5846 5845 5844 5843 5841 5840 5838 5837 5835 5833 5831 5829 5827 5825 5823 5820 5818 5815 5813 5810 5808 5805 5803 5800 5797 5795 5792 5789 5786 5783 5780 5777 5774 5771 5768 5765 5761 5758 5755 5751 5748 5745 5742
5839 5838 5837 5836 5835 5833 5832 5830 5828 5826 5824 5822 5820 5817 5815 5813 5810 5807 5805 5802 5799 5797 5794 5791 5789 5786 5783 5780 5777 5774 5771 5768 5765 5762 5758 5755 5752 5748 5745 5742 5739 5735 5732
5832 5831 5830 5829 5828 5826 5824 5822 5820 5818 5816 5814 5811 5809 5806 5804 5801 5799 5796 5793 5790 5788 5785 5782 5779 5777 5774 5771 5768 5765 5762 5759 5756 5752 5749 5745 5742 5739 5736 5733 5730 5727 5723
5824 5823 5822 5821 5820 5818 5816 5814 5812 5810 5808 5805 5803 5800 5797 5795 5792 5789 5786 5784 5781 5778 5775 5772 5770 5767 5764 5761 5758 5755 5752 5749 5746 5743 5739 5736 5733 5730 5727 5724 5721 5718 5715
5816 5815 5813 5812 5811 5809 5808 5806 5804 5801 5799 5796 5794 5791 5788 5785 5783 5780 5777 5774 5771 5768 5766 5763 5760 5757 5754 5751 5748 5745 5742 5739 5736 5733 5730 5727 5724 5721 5718 5715 5712 5709 5706
5807 5806 5805 5803 5802 5800 5798 5796 5794 5792 5790 5787 5784 5782 5779 5776 5773 5770 5767 5764 5762 5759 5756 5753 5750 5747 5744 5741 5738 5735 5732 5730 5727 5723 5720 5717 5715 5712 5709 5706 5703 5700 5697
5798 5797 5796 5794 5793 5791 5789 5787 5785 5783 5780 5778 5775 5772 5769 5767 5764 5761 5758 5755 5752 5749 5746 5743 5740 5737 5735 5732 5729 5726 5723 5720 5717 5714 5711 5708 5706 5703 5700 5697 5694 5691 5688
5788 5787 5786 5785 5783 5782 5780 5778 5776 5773 5771 5768 5766 5763 5760 5757 5754 5751 5748 5745 5742 5739 5737 5734 5731 5728 5725 5722 5719 5716 5714 5711 5708 5705 5702 5699 5697 5694 5691 5689 5686 5683 5680
5778 5777 5776 5775 5773 5772 5770 5768 5766 5764 5761 5758 5755 5753 5750 5747 5745 5742 5739 5736 5733 5730 5727 5725 5722 5719 5716 5713 5710 5707 5704 5702 5699 5696 5693 5691 5688 5685 5682 5680 5677 5674 5672
5768 5767 5766 5765 5763 5762 5760 5758 5756 5754 5751 5749 5746 5743 5740 5738 5735 5732 5729 5726 5723 5721 5718 5715 5712 5709 5706 5704 5701 5698 5696 5693 5690 5688 5685 5682 5679 5677 5674 5671 5669 5666 5663
5757 5756 5756 5754 5753 5752 5750 5748 5746 5744 5741 5739 5736 5733 5731 5728 5725 5722 5720 5717 5714 5711 5709 5706 5703 5700 5697 5695 5692 5689 5687 5684 5681 5679 5676 5673 5670 5668 5665 5663 5660 5657 5655
5747 5746 5745 5744 5743 5742 5740 5738 5736 5733 5731 5729 5726 5724 5721 5718 5715 5713 5710 5708 5705 5702 5699 5697 5694 5691 5688 5685 5683 5680 5677 5675 5672 5669 5667 5664 5662 5659 5656 5654 5651 5649 5646
5737 5736 5735 5734 5733 5731 5730 5728 5725 5723 5721 5719 5717 5714 5712 5709 5706 5704 5701 5699 5696 5693 5690 5688 5685 5682 5679 5676 5673 5671 5668 5665 5663 5660 5658 5655 5653 5650 5648 5645 5643 5640 5638